Location: 22
(39.7117°N, 89.5929°W)
Time: 09:38:09
(UTC-05:00)

Vanguard 1 Rocket - Pass Details

Date: 16 February 2023
Orbit: 652 x 4223 km, 34.3° (Epoch: 24 March)

Event Time Altitude Azimuth Distance (km) Brightness Sun altitude
Rises 15:20:42 0° 275° (W) 5,067 11.9 22.2°
Reaches altitude 10° 15:23:58 10° 265° (W) 4,488 12.0 21.7°
Maximum altitude 15:35:11 32° 209° (SSW) 4,194 12.2 20.0°
Drops below altitude 10° 15:53:03 10° 156° (SSE) 7,082 12.1 17.1°
Sets 16:00:16 0° 148° (SSE) 8,372 12.3 16.0°
